Louisville Bowman, KY

9:23 PM EDT on July 26, 2017 (GMT -0400)
Bowman

Weather History for KLOU - November, 2013

Change the Weather History Date:

Tuesday, November 5, 2013

  Actual Average Record
Temperature  
Mean Temperature 56 °F 52 °F  
Max Temperature 63 °F 62 °F 80 °F (1975)
Min Temperature 48 °F 42 °F 18 °F (1991)
Degree Days  
Heating Degree Days 9 13  
Month to date heating degree days 61 63  
Since 1 July heating degree days 334 339  
Cooling Degree Days 0 0  
Month to date cooling degree days 0 0  
Year to date cooling degree days 1446 1442  
Growing Degree Days 6 (Base 50)    
Moisture  
Dew Point 41 °F    
Average Humidity 62    
Maximum Humidity 77    
Minimum Humidity 46    
Precipitation  
Precipitation 0.00 in 0.14 in 3.58 in (1948)
Month to date precipitation 0.01 0.69  
Year to date precipitation 50.41 38.61  
Sea Level Pressure  
Sea Level Pressure 30.33 in    
Wind  
Wind Speed 2 mph (SE)    
Max Wind Speed 8 mph    
Max Gust Speed 12 mph    
Visibility 10 miles    
Events      
T = Trace of Precipitation, MM = Missing Value Source: NWS Daily Summary

Daily Weather History Graph

Daily Weather History Graph

Search for Another Location

Airport or City:

Trip Planner

Search our weather history database for the weather conditions in past years. The results will help you decide how hot, cold, wet, or windy it might be!

Date:

Astronomy

Nov. 05, 2013 Rise Set
Actual Time 7:13 AM EST 5:38 PM EST
Civil Twilight 6:45 AM EST 6:06 PM EST
Nautical Twilight 6:14 AM EST 6:37 PM EST
Astronomical Twilight 5:43 AM EST 7:08 PM EST
Moon 9:26 AM EST (11/5) 7:40 PM EST (11/5)
Length of Visible Light 11h 20m
Length of Day
10h 25m
Waxing Crescent, 6% of the Moon is Illuminated
Nov 5
Waxing Crescent
Nov 10
First Quarter
Nov 17
Full
Nov 25
Last Quarter
Dec 2
New

Hourly Weather History & Observations

Time (EST) Temp. Dew Point Humidity Pressure Visibility Wind Dir Wind Speed Gust Speed Precip Events Conditions
12:53 AM 54.0 °F 41.0 °F 62% 30.34 in 10.0 mi Calm Calm - N/A   Clear
1:53 AM 54.0 °F 41.0 °F 62% 30.33 in 10.0 mi Calm Calm - N/A   Partly Cloudy
2:53 AM 54.0 °F 39.9 °F 59% 30.35 in 10.0 mi Calm Calm - N/A   Scattered Clouds
3:53 AM 54.0 °F 39.9 °F 59% 30.35 in 10.0 mi Calm Calm - N/A   Mostly Cloudy
4:53 AM 53.1 °F 41.0 °F 64% 30.36 in 10.0 mi Calm Calm - N/A   Scattered Clouds
5:53 AM 52.0 °F 41.0 °F 66% 30.36 in 10.0 mi Calm Calm - N/A   Clear
6:53 AM 48.9 °F 41.0 °F 74% 30.38 in 10.0 mi Calm Calm - N/A   Clear
7:53 AM 52.0 °F 41.0 °F 66% 30.40 in 10.0 mi Calm Calm - N/A   Clear
8:53 AM 52.0 °F 39.9 °F 63% 30.40 in 10.0 mi Calm Calm - N/A   Clear
9:53 AM 54.0 °F 39.9 °F 59% 30.40 in 10.0 mi SE 4.6 mph - N/A   Clear
10:53 AM 55.9 °F 37.9 °F 51% 30.41 in 10.0 mi SSE 4.6 mph - N/A   Clear
11:53 AM 57.9 °F 39.0 °F 49% 30.40 in 10.0 mi SSE 5.8 mph - N/A   Clear
12:53 PM 60.1 °F 39.0 °F 46% 30.36 in 10.0 mi ESE 5.8 mph - N/A   Clear
1:53 PM 61.0 °F 39.0 °F 44% 30.34 in 10.0 mi ESE 4.6 mph - N/A   Clear
2:53 PM 62.1 °F 41.0 °F 46% 30.31 in 10.0 mi SE 8.1 mph - N/A   Clear
3:53 PM 62.1 °F 41.0 °F 46% 30.30 in 10.0 mi East 3.5 mph - N/A   Clear
4:53 PM 63.0 °F 41.0 °F 45% 30.28 in 10.0 mi East 3.5 mph - N/A   Clear
5:53 PM 61.0 °F 41.0 °F 48% 30.26 in 10.0 mi East 4.6 mph - N/A   Clear
6:53 PM 59.0 °F 41.0 °F 51% 30.26 in 10.0 mi Calm Calm - N/A   Clear
7:53 PM 54.0 °F 41.0 °F 62% 30.26 in 10.0 mi Calm Calm - N/A   Clear
8:53 PM 51.1 °F 43.0 °F 74% 30.26 in 10.0 mi Calm Calm - N/A   Clear
9:53 PM 52.0 °F 43.0 °F 71% 30.25 in 10.0 mi Calm Calm - N/A   Clear
10:53 PM 52.0 °F 41.0 °F 66% 30.24 in 10.0 mi Calm Calm - N/A   Clear
11:53 PM 55.0 °F 39.9 °F 57% 30.22 in 10.0 mi SSE 3.5 mph - N/A   Clear